SCP
0 0 0 0 0 0 0 0 0 0 0 0 0 0 0 0 0 -0 -0 0 0 0
0 0 0 0 0 0 0 0 0 0 -0 -0 -0 -0 0 0 0 -0 -0 0 0 0
0 0 0 0 0 0 0 0 -0 -0 -0 0 -0 0 0 0 0 -0 0 0 0 0
0 0 0 0 0 0 0 0 0 0 0 0 0 0 0 0 0 0 0 0 -0 0
0 0 0 0 0 0 0 0 0 0 0 0 0 0 0 0 0 0 0 0 0 0
0 0 0 0 0 0 0 0 0 0 0 0 0 0 0 0 0 0 0 0 0 0
0 0 0 0 0 0 0 0 0 0 0 0 0 0 0 0 0 -0 -0 0 0 0
0 0 0 0 0 0 0 0 0 0 0 0 0 0 0 0 0 0 0 0 0 0
-0 -0 0 0 0 0 0 0 0 0 0 0 0 0 0 0 0 0 0 0 0 0
0 0 -0 0 0 0 0 0 0 0 0 0 0 0 0 0 0 0 0 0 0 0
0 0 0 0 0 0 0 0 0 0 0 0 0 0 0 0 0 0 0 0 0 0
0 0 0 0 0 0 -0 0 -0 0 0 0 0 0 0 0 0 0 0 0 0 0
-0 -0 0 0 0 0 0 0 0 0 0 0 0 0 0 0 0 0 0 0 0 0
-0 -0 -0 -0 0 0 0 0 0 0 0 0 0 0 -0 0 0 0 0 0 -0 -0
Wind_Speed_500mb
29 24 24 21 21 24 25 25 26 29 35 31 26 18 17 10 7 11 24 12 16 12
27 27 23 20 20 21 23 22 24 24 24 26 29 27 21 23 23 21 28 23 20 21
30 30 27 20 19 20 19 19 21 23 21 21 24 27 26 31 29 27 24 22 18 17
32 36 26 20 17 20 21 20 19 20 17 16 18 21 26 23 24 21 19 18 17 18
29 32 24 22 19 18 20 19 18 16 14 14 17 15 18 20 19 17 16 14 14 14
28 25 21 21 22 25 21 21 15 14 13 13 15 17 18 19 17 16 15 14 13 13
29 25 23 22 23 24 23 21 17 15 12 12 12 13 14 13 15 16 16 17 16 15
26 27 21 23 23 24 25 24 22 19 17 13 11 7 8 16 19 18 17 19 20 21
20 23 22 17 18 20 22 24 24 23 21 17 12 14 17 21 11 14 15 14 15 13
17 18 16 14 12 15 18 18 19 20 19 19 20 21 20 16 12 13 12 12 12 13
14 14 14 12 10 11 11 11 15 17 17 15 17 17 17 16 15 8 7 8 8 10
14 13 14 13 15 14 10 10 9 8 11 14 13 11 9 10 7 7 8 8 8 9
18 17 13 15 13 14 13 8 5 7 7 7 5 6 6 6 7 10 10 9 9 15
16 19 23 20 16 11 9 11 13 13 12 10 9 9 7 4 6 8 10 9 7 13
Wind_Direction_500mb
356 359 354 345 346 347 352 357 3 22 29 27 24 21 31 79 37 60 65 114 112 106
354 353 348 348 351 336 348 360 3 6 0 11 20 36 50 65 83 96 85 96 96 89
6 1 359 4 352 349 354 1 1 0 0 14 26 45 63 69 75 78 80 78 80 86
13 11 5 11 360 356 0 2 359 357 2 13 31 43 51 57 52 56 61 64 67 72
7 9 19 16 15 9 4 2 5 7 15 11 29 46 46 41 34 30 30 38 51 58
356 4 14 17 22 15 15 10 23 24 26 22 18 24 26 24 26 36 39 43 51 54
9 16 28 32 23 27 30 30 39 38 30 27 27 25 28 25 40 61 55 63 71 69
24 25 31 38 43 46 47 49 48 46 45 44 37 42 76 40 51 62 62 69 67 77
22 34 36 41 42 42 44 43 43 40 42 52 43 72 82 97 67 67 75 77 81 65
14 23 34 34 30 25 26 39 42 43 44 47 64 79 84 75 61 64 51 50 53 69
351 357 9 351 360 17 30 39 47 48 54 50 55 66 73 76 59 44 47 62 38 27
20 14 358 337 351 352 3 14 39 33 44 53 51 53 57 52 23 15 358 343 322 324
357 6 4 356 353 343 332 322 332 312 320 341 342 2 14 13 47 359 355 324 326 349
351 346 347 348 327 340 338 315 293 282 280 291 287 294 297 312 3 340 343 9 23 350
Wind_Speed_850mb
29 24 24 21 21 24 25 25 26 29 35 31 26 18 17 10 7 11 24 12 16 12
27 27 23 20 20 21 23 22 24 24 24 26 29 27 21 23 23 21 28 23 20 21
30 30 27 20 19 20 19 19 21 23 21 21 24 27 26 31 29 27 24 22 18 17
32 36 26 20 17 20 21 20 19 20 17 16 18 21 26 23 24 21 19 18 17 18
29 32 24 22 19 18 20 19 18 16 14 14 17 15 18 20 19 17 16 14 14 14
28 25 21 21 22 25 21 21 15 14 13 13 15 17 18 19 17 16 15 14 13 13
29 25 23 22 23 24 23 21 17 15 12 12 12 13 14 13 15 16 16 17 16 15
26 27 21 23 23 24 25 24 22 19 17 13 11 7 8 16 19 18 17 19 20 21
20 23 22 17 18 20 22 24 24 23 21 17 12 14 17 21 11 14 15 14 15 13
17 18 16 14 12 15 18 18 19 20 19 19 20 21 20 16 12 13 12 12 12 13
14 14 14 12 10 11 11 11 15 17 17 15 17 17 17 16 15 8 7 8 8 10
14 13 14 13 15 14 10 10 9 8 11 14 13 11 9 10 7 7 8 8 8 9
18 17 13 15 13 14 13 8 5 7 7 7 5 6 6 6 7 10 10 9 9 15
16 19 23 20 16 11 9 11 13 13 12 10 9 9 7 4 6 8 10 9 7 13
Wind_Direction_850mb
356 359 354 345 346 347 352 357 3 22 29 27 24 21 31 79 37 60 65 114 112 106
354 353 348 348 351 336 348 360 3 6 0 11 20 36 50 65 83 96 85 96 96 89
6 1 359 4 352 349 354 1 1 0 0 14 26 45 63 69 75 78 80 78 80 86
13 11 5 11 360 356 0 2 359 357 2 13 31 43 51 57 52 56 61 64 67 72
7 9 19 16 15 9 4 2 5 7 15 11 29 46 46 41 34 30 30 38 51 58
356 4 14 17 22 15 15 10 23 24 26 22 18 24 26 24 26 36 39 43 51 54
9 16 28 32 23 27 30 30 39 38 30 27 27 25 28 25 40 61 55 63 71 69
24 25 31 38 43 46 47 49 48 46 45 44 37 42 76 40 51 62 62 69 67 77
22 34 36 41 42 42 44 43 43 40 42 52 43 72 82 97 67 67 75 77 81 65
14 23 34 34 30 25 26 39 42 43 44 47 64 79 84 75 61 64 51 50 53 69
351 357 9 351 360 17 30 39 47 48 54 50 55 66 73 76 59 44 47 62 38 27
20 14 358 337 351 352 3 14 39 33 44 53 51 53 57 52 23 15 358 343 322 324
357 6 4 356 353 343 332 322 332 312 320 341 342 2 14 13 47 359 355 324 326 349
351 346 347 348 327 340 338 315 293 282 280 291 287 294 297 312 3 340 343 9 23 350